| time (UTC) | temp F | wind direction | speed MPH | gust MPH | rain 1hr in | rain 24hr in | rain mn in | humidity % | barometer mb |
| 20260509162004 | 62 | 225 | 2.0 | 4.0 | 0.00 | 0.00 | 0.00 | 67 | 1005.5 |
| 20260509161503 | 62 | 228 | 2.0 | 4.0 | 0.00 | 0.00 | 0.00 | 68 | 1005.5 |
| 20260509161003 | 62 | 222 | 2.0 | 4.0 | 0.00 | 0.00 | 0.00 | 68 | 1005.6 |
| 20260509160503 | 62 | 224 | 2.0 | 7.0 | 0.00 | 0.00 | 0.00 | 70 | 1005.7 |
| 20260509160218 | 61 | 231 | 2.0 | 7.0 | 0.00 | 0.00 | 0.00 | 70 | 1005.7 |
| 20260509155503 | 61 | 234 | 2.0 | 7.0 | 0.00 | 0.00 | 0.00 | 72 | 1005.8 |
| 20260509155003 | 61 | 247 | 2.0 | 7.0 | 0.00 | 0.00 | 0.00 | 70 | 1005.8 |
| 20260509154717 | 61 | 253 | 2.0 | 4.0 | 0.00 | 0.00 | 0.00 | 71 | 1005.8 |
| 20260509154219 | 60 | 229 | 1.0 | 4.0 | 0.00 | 0.00 | 0.00 | 72 | 1005.9 |
| 20260509153503 | 60 | 229 | 1.0 | 3.0 | 0.00 | 0.00 | 0.00 | 73 | 1006.0 |
| 20260509153003 | 59 | 260 | 2.0 | 4.0 | 0.00 | 0.00 | 0.00 | 74 | 1006.1 |
| 20260509152503 | 59 | 258 | 2.0 | 4.0 | 0.00 | 0.00 | 0.00 | 73 | 1006.1 |
| 20260509152009 | 59 | 250 | 2.0 | 5.0 | 0.00 | 0.00 | 0.00 | 74 | 1006.2 |
| 20260509151506 | 58 | 247 | 2.0 | 5.0 | 0.00 | 0.00 | 0.00 | 75 | 1006.2 |
| 20260509151218 | 58 | 239 | 2.0 | 3.0 | 0.00 | 0.00 | 0.00 | 74 | 1006.2 |
| 20260509150503 | 59 | 216 | 2.0 | 5.0 | 0.00 | 0.00 | 0.00 | 76 | 1006.2 |
| 20260509150003 | 59 | 218 | 2.0 | 6.0 | 0.00 | 0.00 | 0.00 | 75 | 1006.2 |
| 20260509145503 | 59 | 223 | 2.0 | 6.0 | 0.00 | 0.00 | 0.00 | 75 | 1006.2 |
| 20260509145218 | 59 | 222 | 2.0 | 6.0 | 0.00 | 0.00 | 0.00 | 78 | 1006.2 |
| 20260509144503 | 58 | 205 | 2.0 | 6.0 | 0.00 | 0.00 | 0.00 | 77 | 1006.2 |
| 20260509144218 | 58 | 199 | 2.0 | 5.0 | 0.00 | 0.00 | 0.00 | 76 | 1006.2 |
| 20260509143503 | 58 | 209 | 2.0 | 5.0 | 0.00 | 0.00 | 0.00 | 77 | 1006.3 |
| 20260509143003 | 58 | 227 | 1.0 | 3.0 | 0.00 | 0.00 | 0.00 | 80 | 1006.3 |
| 20260509142503 | 58 | 232 | 2.0 | 4.0 | 0.00 | 0.00 | 0.00 | 79 | 1006.2 |
| 20260509142003 | 57 | 234 | 2.0 | 4.0 | 0.00 | 0.00 | 0.00 | 78 | 1006.3 |
| 20260509141503 | 57 | 229 | 2.0 | 4.0 | 0.00 | 0.00 | 0.00 | 81 | 1006.4 |
| 20260509141218 | 57 | 211 | 2.0 | 6.0 | 0.00 | 0.00 | 0.00 | 80 | 1006.5 |
| 20260509140503 | 56 | 206 | 2.0 | 6.0 | 0.00 | 0.00 | 0.00 | 81 | 1006.5 |
| 20260509140005 | 56 | 215 | 2.0 | 6.0 | 0.00 | 0.00 | 0.00 | 81 | 1006.5 |
| 20260509135503 | 56 | 226 | 2.0 | 6.0 | 0.00 | 0.00 | 0.00 | 81 | 1006.5 |
| 20260509135003 | 56 | 221 | 2.0 | 6.0 | 0.00 | 0.00 | 0.00 | 82 | 1006.5 |
| 20260509134503 | 56 | 225 | 2.0 | 5.0 | 0.00 | 0.00 | 0.00 | 81 | 1006.5 |
| 20260509134003 | 56 | 230 | 2.0 | 5.0 | 0.00 | 0.00 | 0.00 | 82 | 1006.5 |
| 20260509133503 | 56 | 219 | 2.0 | 4.0 | 0.00 | 0.00 | 0.00 | 83 | 1006.6 |
| 20260509133004 | 56 | 219 | 1.0 | 5.0 | 0.00 | 0.00 | 0.00 | 83 | 1006.6 |
| 20260509132718 | 56 | 214 | 1.0 | 5.0 | 0.00 | 0.00 | 0.00 | 83 | 1006.6 |
| 20260509132003 | 55 | 213 | 2.0 | 6.0 | 0.00 | 0.00 | 0.00 | 84 | 1006.6 |
| 20260509131504 | 55 | 219 | 2.0 | 6.0 | 0.00 | 0.00 | 0.00 | 84 | 1006.6 |
| 20260509131003 | 54 | 212 | 2.0 | 5.0 | 0.00 | 0.00 | 0.00 | 85 | 1006.6 |
| 20260509130503 | 54 | 215 | 1.0 | 6.0 | 0.00 | 0.00 | 0.00 | 85 | 1006.7 |
| 20260509130003 | 54 | 224 | 1.0 | 6.0 | 0.00 | 0.00 | 0.00 | 86 | 1006.7 |
| 20260509125503 | 53 | 223 | 1.0 | 10.0 | 0.00 | 0.00 | 0.00 | 86 | 1006.8 |
| 20260509125003 | 53 | 221 | 1.0 | 10.0 | 0.00 | 0.00 | 0.00 | 87 | 1006.8 |
| 20260509124503 | 52 | 209 | 1.0 | 5.0 | 0.00 | 0.00 | 0.00 | 88 | 1006.9 |
| 20260509124003 | 52 | 206 | 1.0 | 4.0 | 0.00 | 0.01 | 0.00 | 88 | 1006.9 |
| 20260509123504 | 51 | 205 | 1.0 | 4.0 | 0.00 | 0.01 | 0.00 | 89 | 1006.9 |
| 20260509123219 | 51 | 213 | 1.0 | 4.0 | 0.00 | 0.01 | 0.00 | 89 | 1006.9 |
| 20260509122718 | 50 | 212 | 1.0 | 2.0 | 0.00 | 0.01 | 0.00 | 90 | 1006.9 |
| 20260509122003 | 50 | 206 | 1.0 | 4.0 | 0.00 | 0.01 | 0.00 | 92 | 1007.0 |
| 20260509121718 | 49 | 208 | 1.0 | 4.0 | 0.00 | 0.01 | 0.00 | 93 | 1007.0 |
| 20260509121003 | 48 | 0 | 0.0 | 0.0 | 0.00 | 0.01 | 0.00 | 94 | 1007.1 |
| 20260509120718 | 48 | 159 | 0.0 | 1.0 | 0.00 | 0.01 | 0.00 | 94 | 1007.0 |
| 20260509120004 | 46 | 159 | 0.0 | 1.0 | 0.00 | 0.02 | 0.00 | 94 | 1007.0 |
| 20260509115504 | 46 | 0 | 0.0 | 0.0 | 0.00 | 0.02 | 0.00 | 94 | 1007.0 |
| 20260509115003 | 45 | 0 | 0.0 | 0.0 | 0.00 | 0.02 | 0.00 | 94 | 1007.0 |
| 20260509114504 | 45 | 0 | 0.0 | 0.0 | 0.00 | 0.02 | 0.00 | 94 | 1006.9 |
| 20260509114003 | 44 | 0 | 0.0 | 0.0 | 0.00 | 0.03 | 0.00 | 94 | 1007.0 |
| 20260509113506 | 44 | 0 | 0.0 | 0.0 | 0.00 | 0.04 | 0.00 | 93 | 1007.1 |
| 20260509113003 | 44 | 0 | 0.0 | 0.0 | 0.00 | 0.04 | 0.00 | 93 | 1007.1 |
| 20260509112503 | 43 | 0 | 0.0 | 0.0 | 0.00 | 0.05 | 0.00 | 93 | 1007.0 |
| 20260509112217 | 43 | 0 | 0.0 | 0.0 | 0.00 | 0.06 | 0.00 | 93 | 1007.0 |
| 20260509111503 | 43 | 0 | 0.0 | 0.0 | 0.00 | 0.07 | 0.00 | 93 | 1007.1 |
| 20260509111003 | 42 | 0 | 0.0 | 0.0 | 0.00 | 0.07 | 0.00 | 93 | 1007.2 |
| 20260509110503 | 42 | 0 | 0.0 | 0.0 | 0.00 | 0.08 | 0.00 | 93 | 1007.3 |
| 20260509110003 | 42 | 0 | 0.0 | 0.0 | 0.00 | 0.08 | 0.00 | 93 | 1007.4 |
| 20260509105503 | 42 | 0 | 0.0 | 0.0 | 0.00 | 0.08 | 0.00 | 93 | 1007.3 |
| 20260509105003 | 42 | 0 | 0.0 | 0.0 | 0.00 | 0.08 | 0.00 | 93 | 1007.3 |
| 20260509104503 | 41 | 0 | 0.0 | 0.0 | 0.00 | 0.08 | 0.00 | 92 | 1007.3 |
| 20260509104003 | 41 | 0 | 0.0 | 0.0 | 0.00 | 0.08 | 0.00 | 92 | 1007.3 |
| 20260509103503 | 41 | 0 | 0.0 | 0.0 | 0.00 | 0.08 | 0.00 | 92 | 1007.2 |
| 20260509103003 | 41 | 0 | 0.0 | 0.0 | 0.00 | 0.09 | 0.00 | 92 | 1007.1 |
| 20260509102503 | 41 | 0 | 0.0 | 0.0 | 0.00 | 0.09 | 0.00 | 91 | 1007.1 |
| 20260509102003 | 41 | 0 | 0.0 | 0.0 | 0.00 | 0.09 | 0.00 | 91 | 1007.1 |
| 20260509101503 | 41 | 0 | 0.0 | 0.0 | 0.00 | 0.09 | 0.00 | 91 | 1007.0 |
| 20260509101003 | 41 | 0 | 0.0 | 0.0 | 0.00 | 0.09 | 0.00 | 91 | 1007.0 |
| 20260509100503 | 41 | 0 | 0.0 | 0.0 | 0.00 | 0.09 | 0.00 | 91 | 1007.0 |
| 20260509100004 | 41 | 0 | 0.0 | 0.0 | 0.00 | 0.09 | 0.00 | 91 | 1007.0 |
| 20260509095503 | 41 | 0 | 0.0 | 0.0 | 0.00 | 0.09 | 0.00 | 91 | 1007.1 |
| 20260509095003 | 41 | 0 | 0.0 | 0.0 | 0.00 | 0.09 | 0.00 | 91 | 1007.1 |
| 20260509094503 | 40 | 0 | 0.0 | 0.0 | 0.00 | 0.09 | 0.00 | 91 | 1007.1 |
| 20260509094003 | 40 | 0 | 0.0 | 0.0 | 0.00 | 0.09 | 0.00 | 91 | 1007.1 |
| 20260509093717 | 40 | 0 | 0.0 | 0.0 | 0.00 | 0.09 | 0.00 | 91 | 1007.1 |
| 20260509093003 | 40 | 0 | 0.0 | 0.0 | 0.00 | 0.09 | 0.00 | 91 | 1007.1 |
| 20260509092503 | 40 | 0 | 0.0 | 0.0 | 0.00 | 0.09 | 0.00 | 90 | 1007.1 |
| 20260509092003 | 40 | 0 | 0.0 | 0.0 | 0.00 | 0.09 | 0.00 | 90 | 1007.2 |
| 20260509091503 | 40 | 0 | 0.0 | 0.0 | 0.00 | 0.09 | 0.00 | 90 | 1007.1 |
| 20260509091003 | 40 | 0 | 0.0 | 0.0 | 0.00 | 0.09 | 0.00 | 90 | 1007.1 |
| 20260509090503 | 40 | 0 | 0.0 | 0.0 | 0.00 | 0.09 | 0.00 | 90 | 1007.2 |
| 20260509090003 | 40 | 0 | 0.0 | 0.0 | 0.00 | 0.09 | 0.00 | 90 | 1007.3 |
| 20260509085503 | 40 | 0 | 0.0 | 0.0 | 0.00 | 0.09 | 0.00 | 90 | 1007.3 |
| 20260509085003 | 40 | 0 | 0.0 | 0.0 | 0.00 | 0.09 | 0.00 | 90 | 1007.3 |
| 20260509084503 | 40 | 0 | 0.0 | 0.0 | 0.00 | 0.09 | 0.00 | 90 | 1007.3 |
| 20260509084003 | 40 | 0 | 0.0 | 0.0 | 0.00 | 0.09 | 0.00 | 90 | 1007.3 |
| 20260509083503 | 40 | 0 | 0.0 | 0.0 | 0.00 | 0.09 | 0.00 | 90 | 1007.3 |
| 20260509083003 | 40 | 0 | 0.0 | 0.0 | 0.00 | 0.09 | 0.00 | 90 | 1007.4 |
| 20260509082503 | 39 | 0 | 0.0 | 0.0 | 0.00 | 0.09 | 0.00 | 89 | 1007.4 |
| 20260509082003 | 39 | 0 | 0.0 | 0.0 | 0.00 | 0.09 | 0.00 | 89 | 1007.4 |
| 20260509081503 | 39 | 0 | 0.0 | 0.0 | 0.00 | 0.09 | 0.00 | 89 | 1007.4 |
| 20260509081003 | 39 | 0 | 0.0 | 0.0 | 0.00 | 0.09 | 0.00 | 89 | 1007.5 |
| 20260509080503 | 39 | 0 | 0.0 | 0.0 | 0.00 | 0.09 | 0.00 | 89 | 1007.5 |
| 20260509080004 | 39 | 0 | 0.0 | 0.0 | 0.00 | 0.09 | 0.00 | 89 | 1007.6 |
| 20260509075503 | 39 | 0 | 0.0 | 0.0 | 0.00 | 0.09 | 0.00 | 89 | 1007.6 |
| 20260509075003 | 39 | 0 | 0.0 | 0.0 | 0.00 | 0.09 | 0.00 | 89 | 1007.5 |
| 20260509074503 | 39 | 0 | 0.0 | 0.0 | 0.00 | 0.09 | 0.00 | 89 | 1007.7 |
| 20260509074217 | 39 | 0 | 0.0 | 0.0 | 0.00 | 0.09 | 0.00 | 88 | 1007.6 |
| 20260509073503 | 39 | 0 | 0.0 | 0.0 | 0.00 | 0.09 | 0.00 | 88 | 1007.8 |
| 20260509073003 | 39 | 0 | 0.0 | 0.0 | 0.00 | 0.09 | 0.00 | 89 | 1007.8 |
| 20260509072718 | 39 | 0 | 0.0 | 0.0 | 0.00 | 0.09 | 0.00 | 89 | 1007.7 |
| 20260509072003 | 39 | 0 | 0.0 | 0.0 | 0.00 | 0.09 | 0.00 | 87 | 1007.9 |
| 20260509071503 | 39 | 0 | 0.0 | 0.0 | 0.00 | 0.09 | 0.00 | 87 | 1007.9 |
| 20260509071003 | 39 | 0 | 0.0 | 0.0 | 0.00 | 0.09 | 0.00 | 88 | 1007.9 |
| 20260509070503 | 39 | 0 | 0.0 | 0.0 | 0.00 | 0.09 | 0.00 | 87 | 1007.9 |
| 20260509070217 | 39 | 0 | 0.0 | 0.0 | 0.00 | 0.09 | 0.00 | 88 | 1007.9 |
| 20260509065504 | 39 | 0 | 0.0 | 0.0 | 0.00 | 0.09 | 0.00 | 88 | 1008.0 |
| 20260509065217 | 39 | 0 | 0.0 | 0.0 | 0.00 | 0.09 | 0.00 | 88 | 1008.0 |
| 20260509064503 | 39 | 0 | 0.0 | 0.0 | 0.00 | 0.09 | 0.00 | 88 | 1008.1 |
| 20260509064003 | 39 | 0 | 0.0 | 0.0 | 0.00 | 0.09 | 0.00 | 88 | 1008.2 |
| 20260509063503 | 39 | 0 | 0.0 | 0.0 | 0.00 | 0.09 | 0.00 | 87 | 1008.2 |
| 20260509063003 | 40 | 0 | 0.0 | 0.0 | 0.00 | 0.09 | 0.00 | 87 | 1008.2 |
| 20260509062718 | 39 | 0 | 0.0 | 0.0 | 0.00 | 0.09 | 0.00 | 87 | 1008.4 |
| 20260509062217 | 40 | 0 | 0.0 | 0.0 | 0.00 | 0.09 | 0.00 | 87 | 1008.4 |
| 20260509061718 | 40 | 0 | 0.0 | 0.0 | 0.00 | 0.09 | 0.00 | 87 | 1008.7 |
| 20260509061003 | 40 | 0 | 0.0 | 0.0 | 0.00 | 0.09 | 0.00 | 87 | 1008.7 |
| 20260509060503 | 40 | 0 | 0.0 | 0.0 | 0.00 | 0.09 | 0.00 | 87 | 1008.8 |
| 20260509060004 | 40 | 0 | 0.0 | 0.0 | 0.00 | 0.09 | 0.00 | 87 | 1008.9 |
| 20260509055718 | 40 | 0 | 0.0 | 0.0 | 0.00 | 0.09 | 0.00 | 86 | 1009.0 |
| 20260509055003 | 40 | 159 | 0.0 | 1.0 | 0.00 | 0.09 | 0.00 | 84 | 1009.0 |
| 20260509054718 | 40 | 159 | 0.0 | 1.0 | 0.00 | 0.09 | 0.00 | 85 | 1009.0 |
| 20260509054003 | 40 | 0 | 0.0 | 0.0 | 0.00 | 0.09 | 0.00 | 85 | 1009.0 |
| 20260509053503 | 40 | 0 | 0.0 | 0.0 | 0.00 | 0.09 | 0.00 | 82 | 1009.0 |
| 20260509053003 | 40 | 0 | 0.0 | 0.0 | 0.00 | 0.09 | 0.00 | 83 | 1009.3 |
| 20260509052503 | 40 | 0 | 0.0 | 0.0 | 0.00 | 0.09 | 0.00 | 81 | 1009.1 |
| 20260509052218 | 40 | 0 | 0.0 | 0.0 | 0.00 | 0.09 | 0.00 | 82 | 1009.2 |
| 20260509051503 | 40 | 0 | 0.0 | 0.0 | 0.00 | 0.09 | 0.00 | 85 | 1009.3 |
| 20260509051003 | 40 | 0 | 0.0 | 0.0 | 0.00 | 0.09 | 0.00 | 84 | 1009.3 |
| 20260509050504 | 40 | 159 | 0.0 | 1.0 | 0.00 | 0.09 | 0.00 | 84 | 1009.3 |
| 20260509050003 | 40 | 159 | 0.0 | 1.0 | 0.00 | 0.09 | 0.00 | 83 | 1009.4 |
| 20260509045503 | 41 | 159 | 0.0 | 1.0 | 0.00 | 0.09 | 0.00 | 85 | 1009.5 |
| 20260509045003 | 41 | 0 | 0.0 | 0.0 | 0.00 | 0.09 | 0.00 | 84 | 1009.5 |
| 20260509044504 | 41 | 0 | 0.0 | 0.0 | 0.00 | 0.09 | 0.00 | 85 | 1009.5 |
| 20260509044218 | 41 | 0 | 0.0 | 0.0 | 0.00 | 0.09 | 0.00 | 85 | 1009.5 |
| 20260509043717 | 41 | 0 | 0.0 | 0.0 | 0.00 | 0.09 | 0.00 | 84 | 1009.6 |
| 20260509043003 | 40 | 0 | 0.0 | 0.0 | 0.00 | 0.09 | 0.00 | 81 | 1009.7 |
| 20260509042503 | 41 | 0 | 0.0 | 0.0 | 0.00 | 0.09 | 0.00 | 82 | 1009.7 |
| 20260509042028 | 41 | 0 | 0.0 | 0.0 | 0.00 | 0.09 | 0.00 | 83 | 1009.8 |
| 20260509041721 | 41 | 0 | 0.0 | 0.0 | 0.00 | 0.09 | 0.00 | 83 | 1009.8 |
| 20260509041218 | 41 | 0 | 0.0 | 0.0 | 0.00 | 0.09 | 0.00 | 83 | 1009.6 |
| 20260509040503 | 41 | 0 | 0.0 | 0.0 | 0.00 | 0.09 | 0.00 | 84 | 1009.8 |
| 20260509040005 | 41 | 0 | 0.0 | 0.0 | 0.00 | 0.09 | 0.00 | 83 | 1009.9 |
| 20260509035503 | 41 | 0 | 0.0 | 0.0 | 0.00 | 0.09 | 0.09 | 83 | 1009.9 |
| 20260509035218 | 41 | 0 | 0.0 | 0.0 | 0.00 | 0.09 | 0.09 | 83 | 1010.0 |
| 20260509034503 | 41 | 0 | 0.0 | 0.0 | 0.00 | 0.09 | 0.09 | 81 | 1010.0 |
| 20260509034003 | 41 | 0 | 0.0 | 0.0 | 0.00 | 0.09 | 0.09 | 79 | 1010.0 |
| 20260509033503 | 41 | 0 | 0.0 | 0.0 | 0.00 | 0.09 | 0.09 | 80 | 1010.1 |
| 20260509033003 | 42 | 0 | 0.0 | 0.0 | 0.00 | 0.09 | 0.09 | 79 | 1010.1 |
| 20260509032505 | 42 | 0 | 0.0 | 0.0 | 0.00 | 0.09 | 0.09 | 79 | 1010.1 |
| 20260509032007 | 42 | 0 | 0.0 | 0.0 | 0.00 | 0.09 | 0.09 | 81 | 1010.2 |
| 20260509031719 | 42 | 0 | 0.0 | 0.0 | 0.00 | 0.09 | 0.09 | 82 | 1010.2 |
| 20260509031005 | 42 | 0 | 0.0 | 0.0 | 0.00 | 0.09 | 0.09 | 79 | 1010.2 |
| 20260509030503 | 42 | 0 | 0.0 | 0.0 | 0.00 | 0.09 | 0.09 | 79 | 1010.3 |
| 20260509030217 | 42 | 0 | 0.0 | 0.0 | 0.00 | 0.09 | 0.09 | 79 | 1010.2 |
| 20260509025503 | 42 | 0 | 0.0 | 0.0 | 0.00 | 0.09 | 0.09 | 79 | 1010.2 |
| 20260509025217 | 42 | 0 | 0.0 | 0.0 | 0.00 | 0.09 | 0.09 | 77 | 1010.2 |
| 20260509024503 | 43 | 0 | 0.0 | 0.0 | 0.00 | 0.09 | 0.09 | 80 | 1010.3 |
| 20260509024003 | 43 | 0 | 0.0 | 0.0 | 0.00 | 0.09 | 0.09 | 80 | 1010.3 |
| 20260509023503 | 43 | 159 | 0.0 | 1.0 | 0.00 | 0.09 | 0.09 | 79 | 1010.3 |
| 20260509023003 | 43 | 159 | 0.0 | 1.0 | 0.00 | 0.09 | 0.09 | 73 | 1010.3 |
| 20260509022718 | 43 | 0 | 0.0 | 0.0 | 0.00 | 0.10 | 0.09 | 70 | 1010.4 |
| 20260509022003 | 43 | 0 | 0.0 | 0.0 | 0.00 | 0.10 | 0.09 | 69 | 1010.2 |
| 20260509021718 | 44 | 0 | 0.0 | 0.0 | 0.00 | 0.11 | 0.09 | 70 | 1010.3 |
| 20260509021003 | 44 | 0 | 0.0 | 0.0 | 0.00 | 0.12 | 0.09 | 79 | 1010.1 |
| 20260509020503 | 44 | 0 | 0.0 | 0.0 | 0.00 | 0.13 | 0.09 | 78 | 1010.2 |
| 20260509020003 | 45 | 0 | 0.0 | 0.0 | 0.00 | 0.13 | 0.09 | 78 | 1010.1 |
| 20260509015503 | 45 | 0 | 0.0 | 0.0 | 0.00 | 0.14 | 0.09 | 77 | 1010.0 |
| 20260509015003 | 45 | 0 | 0.0 | 0.0 | 0.00 | 0.14 | 0.09 | 76 | 1010.0 |
| 20260509014718 | 45 | 0 | 0.0 | 0.0 | 0.00 | 0.14 | 0.09 | 74 | 1009.9 |
| 20260509014003 | 46 | 0 | 0.0 | 0.0 | 0.00 | 0.15 | 0.09 | 76 | 1010.0 |
| 20260509013503 | 46 | 0 | 0.0 | 0.0 | 0.00 | 0.15 | 0.09 | 77 | 1010.0 |
| 20260509013217 | 46 | 0 | 0.0 | 0.0 | 0.00 | 0.16 | 0.09 | 76 | 1010.0 |
| 20260509012718 | 47 | 0 | 0.0 | 0.0 | 0.00 | 0.18 | 0.09 | 69 | 1010.0 |
| 20260509012003 | 47 | 0 | 0.0 | 0.0 | 0.00 | 0.19 | 0.09 | 73 | 1010.0 |
| 20260509011503 | 48 | 0 | 0.0 | 0.0 | 0.00 | 0.19 | 0.09 | 71 | 1009.9 |
| 20260509011217 | 48 | 0 | 0.0 | 0.0 | 0.00 | 0.19 | 0.09 | 70 | 1009.9 |
| 20260509010503 | 48 | 0 | 0.0 | 0.0 | 0.00 | 0.19 | 0.09 | 69 | 1009.9 |
| 20260509010003 | 49 | 0 | 0.0 | 0.0 | 0.00 | 0.19 | 0.09 | 64 | 1009.9 |
| 20260509005503 | 49 | 0 | 0.0 | 0.0 | 0.00 | 0.19 | 0.09 | 64 | 1009.9 |
| 20260509005003 | 49 | 0 | 0.0 | 0.0 | 0.00 | 0.19 | 0.09 | 55 | 1009.8 |
| 20260509004718 | 50 | 0 | 0.0 | 0.0 | 0.00 | 0.19 | 0.09 | 55 | 1009.9 |
| 20260509004003 | 50 | 0 | 0.0 | 0.0 | 0.00 | 0.19 | 0.09 | 53 | 1009.8 |
| 20260509003717 | 50 | 0 | 0.0 | 0.0 | 0.00 | 0.19 | 0.09 | 49 | 1009.7 |
| 20260509003003 | 51 | 0 | 0.0 | 0.0 | 0.00 | 0.19 | 0.09 | 49 | 1009.7 |
| 20260509002504 | 51 | 0 | 0.0 | 0.0 | 0.00 | 0.20 | 0.09 | 54 | 1009.6 |
| 20260509002216 | 51 | 0 | 0.0 | 0.0 | 0.00 | 0.20 | 0.09 | 53 | 1009.5 |
| 20260509001503 | 52 | 0 | 0.0 | 0.0 | 0.00 | 0.20 | 0.09 | 46 | 1009.5 |
| 20260509001003 | 52 | 0 | 0.0 | 0.0 | 0.00 | 0.20 | 0.09 | 47 | 1009.3 |
| 20260509000503 | 52 | 0 | 0.0 | 0.0 | 0.00 | 0.20 | 0.09 | 47 | 1009.4 |
| 20260509000003 | 53 | 0 | 0.0 | 0.0 | 0.00 | 0.20 | 0.09 | 47 | 1009.4 |
| 20260508235503 | 53 | 0 | 0.0 | 0.0 | 0.00 | 0.20 | 0.09 | 49 | 1009.4 |
| 20260508235218 | 53 | 159 | 0.0 | 1.0 | 0.00 | 0.20 | 0.09 | 46 | 1009.4 |
| 20260508234503 | 53 | 159 | 0.0 | 2.0 | 0.00 | 0.20 | 0.09 | 49 | 1009.4 |
| 20260508234218 | 53 | 159 | 0.0 | 2.0 | 0.00 | 0.20 | 0.09 | 49 | 1009.3 |
| 20260508233503 | 54 | 159 | 0.0 | 2.0 | 0.00 | 0.20 | 0.09 | 49 | 1009.3 |
| 20260508233003 | 54 | 180 | 1.0 | 2.0 | 0.00 | 0.20 | 0.09 | 51 | 1009.3 |
| 20260508232506 | 54 | 236 | 1.0 | 2.0 | 0.00 | 0.20 | 0.09 | 47 | 1009.3 |
| 20260508232003 | 54 | 240 | 1.0 | 2.0 | 0.00 | 0.20 | 0.09 | 47 | 1009.3 |
| 20260508231503 | 54 | 240 | 0.0 | 2.0 | 0.00 | 0.20 | 0.09 | 49 | 1009.4 |
| 20260508231003 | 54 | 240 | 1.0 | 3.0 | 0.00 | 0.20 | 0.09 | 46 | 1009.3 |
| 20260508230503 | 54 | 240 | 1.0 | 3.0 | 0.00 | 0.20 | 0.09 | 46 | 1009.3 |
| 20260508230003 | 55 | 240 | 1.0 | 3.0 | 0.00 | 0.20 | 0.09 | 41 | 1009.2 |
| 20260508225503 | 55 | 240 | 1.0 | 2.0 | 0.00 | 0.20 | 0.09 | 43 | 1009.3 |
| 20260508225003 | 55 | 236 | 1.0 | 3.0 | 0.00 | 0.20 | 0.09 | 41 | 1009.3 |
| 20260508224503 | 55 | 223 | 1.0 | 4.0 | 0.00 | 0.20 | 0.09 | 43 | 1009.3 |
| 20260508224003 | 55 | 218 | 1.0 | 4.0 | 0.00 | 0.20 | 0.09 | 43 | 1009.3 |
| 20260508223503 | 56 | 232 | 1.0 | 3.0 | 0.00 | 0.20 | 0.09 | 43 | 1009.4 |
| 20260508223003 | 56 | 245 | 1.0 | 3.0 | 0.00 | 0.20 | 0.09 | 42 | 1009.5 |
| 20260508222504 | 56 | 231 | 1.0 | 3.0 | 0.00 | 0.20 | 0.09 | 46 | 1009.4 |
| 20260508222003 | 56 | 240 | 2.0 | 3.0 | 0.00 | 0.20 | 0.09 | 45 | 1009.4 |
| 20260508221503 | 56 | 244 | 1.0 | 3.0 | 0.00 | 0.20 | 0.09 | 43 | 1009.4 |
| 20260508221004 | 56 | 230 | 2.0 | 4.0 | 0.00 | 0.20 | 0.09 | 42 | 1009.4 |
| 20260508220503 | 56 | 235 | 1.0 | 4.0 | 0.00 | 0.20 | 0.09 | 41 | 1009.4 |
| 20260508220003 | 56 | 244 | 1.0 | 3.0 | 0.00 | 0.20 | 0.09 | 43 | 1009.4 |
| 20260508215503 | 56 | 244 | 1.0 | 3.0 | 0.00 | 0.20 | 0.09 | 42 | 1009.4 |
| 20260508215003 | 56 | 244 | 1.0 | 3.0 | 0.00 | 0.20 | 0.09 | 42 | 1009.4 |
| 20260508214719 | 56 | 246 | 1.0 | 3.0 | 0.00 | 0.20 | 0.09 | 45 | 1009.4 |
| 20260508214003 | 56 | 247 | 1.0 | 3.0 | 0.00 | 0.20 | 0.09 | 45 | 1009.4 |
| 20260508213503 | 56 | 220 | 1.0 | 4.0 | 0.00 | 0.20 | 0.09 | 42 | 1009.5 |
| 20260508213003 | 56 | 217 | 2.0 | 4.0 | 0.00 | 0.20 | 0.09 | 40 | 1009.5 |
| 20260508212508 | 56 | 230 | 2.0 | 6.0 | 0.00 | 0.20 | 0.09 | 42 | 1009.4 |
| 20260508212003 | 56 | 216 | 2.0 | 6.0 | 0.00 | 0.20 | 0.09 | 44 | 1009.4 |
| 20260508211503 | 57 | 211 | 2.0 | 5.0 | 0.00 | 0.20 | 0.09 | 44 | 1009.4 |
| 20260508211217 | 57 | 206 | 2.0 | 4.0 | 0.00 | 0.20 | 0.09 | 42 | 1009.3 |
| 20260508210503 | 57 | 198 | 1.0 | 4.0 | 0.00 | 0.20 | 0.09 | 48 | 1009.4 |
| 20260508210003 | 56 | 229 | 1.0 | 3.0 | 0.00 | 0.20 | 0.09 | 46 | 1009.5 |
| 20260508205503 | 56 | 230 | 1.0 | 4.0 | 0.00 | 0.20 | 0.09 | 48 | 1009.5 |
| 20260508205003 | 57 | 230 | 1.0 | 4.0 | 0.00 | 0.20 | 0.09 | 45 | 1009.5 |
| 20260508204503 | 56 | 227 | 2.0 | 4.0 | 0.00 | 0.20 | 0.09 | 46 | 1009.5 |
| 20260508204003 | 56 | 220 | 2.0 | 4.0 | 0.00 | 0.20 | 0.09 | 50 | 1009.6 |
| 20260508203503 | 56 | 225 | 2.0 | 4.0 | 0.00 | 0.20 | 0.09 | 47 | 1009.6 |
| 20260508203217 | 56 | 225 | 1.0 | 4.0 | 0.00 | 0.20 | 0.09 | 48 | 1009.6 |
| 20260508202503 | 56 | 242 | 1.0 | 3.0 | 0.00 | 0.20 | 0.09 | 42 | 1009.6 |
| 20260508202003 | 57 | 236 | 2.0 | 7.0 | 0.00 | 0.20 | 0.09 | 53 | 1009.8 |
| 20260508201718 | 57 | 232 | 2.0 | 7.0 | 0.00 | 0.20 | 0.09 | 45 | 1009.9 |
| 20260508201008 | 58 | 205 | 2.0 | 5.0 | 0.00 | 0.20 | 0.09 | 49 | 1009.7 |
| 20260508200003 | 58 | 197 | 2.0 | 4.0 | 0.00 | 0.20 | 0.09 | 46 | 1009.9 |
| 20260508195503 | 58 | 221 | 3.0 | 9.0 | 0.00 | 0.20 | 0.09 | 54 | 1009.9 |
| 20260508195003 | 58 | 226 | 2.0 | 9.0 | 0.00 | 0.20 | 0.09 | 48 | 1010.0 |
| 20260508194503 | 58 | 221 | 2.0 | 4.0 | 0.00 | 0.20 | 0.09 | 53 | 1010.1 |
| 20260508194217 | 58 | 214 | 2.0 | 8.0 | 0.00 | 0.20 | 0.09 | 47 | 1010.1 |
| 20260508193504 | 58 | 211 | 2.0 | 8.0 | 0.00 | 0.20 | 0.09 | 46 | 1010.1 |
| 20260508193003 | 58 | 220 | 2.0 | 4.0 | 0.00 | 0.20 | 0.09 | 48 | 1010.1 |
| 20260508192503 | 58 | 231 | 1.0 | 4.0 | 0.00 | 0.20 | 0.09 | 44 | 1010.3 |
| 20260508192217 | 58 | 221 | 1.0 | 4.0 | 0.00 | 0.20 | 0.09 | 48 | 1010.4 |
| 20260508191503 | 58 | 215 | 2.0 | 4.0 | 0.00 | 0.20 | 0.09 | 53 | 1010.5 |
| 20260508191004 | 58 | 207 | 2.0 | 8.0 | 0.00 | 0.20 | 0.09 | 54 | 1010.4 |
| 20260508190503 | 57 | 213 | 2.0 | 8.0 | 0.00 | 0.20 | 0.09 | 53 | 1010.5 |
| 20260508190003 | 56 | 238 | 2.0 | 6.0 | 0.00 | 0.20 | 0.09 | 50 | 1010.6 |
| 20260508185503 | 56 | 250 | 1.0 | 5.0 | 0.00 | 0.20 | 0.09 | 55 | 1010.6 |
| 20260508185003 | 55 | 189 | 1.0 | 4.0 | 0.00 | 0.20 | 0.09 | 57 | 1010.7 |
| 20260508184504 | 55 | 206 | 1.0 | 3.0 | 0.00 | 0.20 | 0.09 | 48 | 1010.7 |
| 20260508184003 | 56 | 226 | 1.0 | 3.0 | 0.00 | 0.20 | 0.09 | 48 | 1010.7 |
| 20260508183506 | 57 | 212 | 2.0 | 3.0 | 0.00 | 0.20 | 0.09 | 45 | 1010.7 |
| 20260508183003 | 57 | 219 | 2.0 | 7.0 | 0.00 | 0.20 | 0.09 | 48 | 1010.7 |
| 20260508182717 | 57 | 215 | 2.0 | 7.0 | 0.00 | 0.20 | 0.09 | 45 | 1010.7 |
| 20260508182003 | 57 | 235 | 2.0 | 7.0 | 0.00 | 0.20 | 0.09 | 44 | 1010.6 |
| 20260508181717 | 57 | 229 | 2.0 | 7.0 | 0.00 | 0.20 | 0.09 | 48 | 1010.6 |
| 20260508181218 | 57 | 219 | 2.0 | 7.0 | 0.00 | 0.20 | 0.09 | 48 | 1010.6 |
| 20260508180503 | 56 | 253 | 2.0 | 4.0 | 0.00 | 0.20 | 0.09 | 54 | 1010.8 |
| 20260508180004 | 56 | 251 | 2.0 | 4.0 | 0.00 | 0.20 | 0.09 | 49 | 1010.8 |
| 20260508175503 | 55 | 228 | 2.0 | 6.0 | 0.00 | 0.20 | 0.09 | 50 | 1010.8 |
| 20260508175003 | 55 | 195 | 2.0 | 6.0 | 0.00 | 0.20 | 0.09 | 52 | 1010.9 |
| 20260508174503 | 55 | 226 | 2.0 | 4.0 | 0.00 | 0.20 | 0.09 | 59 | 1011.1 |
| 20260508174003 | 56 | 216 | 2.0 | 4.0 | 0.00 | 0.20 | 0.09 | 47 | 1011.1 |
| 20260508173505 | 55 | 212 | 2.0 | 4.0 | 0.00 | 0.20 | 0.09 | 51 | 1011.1 |
| 20260508173003 | 55 | 232 | 1.0 | 4.0 | 0.00 | 0.20 | 0.09 | 54 | 1011.1 |
| 20260508172503 | 54 | 264 | 1.0 | 3.0 | 0.00 | 0.20 | 0.09 | 56 | 1011.2 |
| 20260508172003 | 54 | 348 | 1.0 | 3.0 | 0.00 | 0.20 | 0.09 | 56 | 1011.2 |
| 20260508171503 | 54 | 302 | 1.0 | 4.0 | 0.00 | 0.20 | 0.09 | 57 | 1011.1 |
| 20260508171003 | 54 | 252 | 2.0 | 4.0 | 0.00 | 0.20 | 0.09 | 54 | 1011.3 |
| 20260508170503 | 54 | 229 | 2.0 | 4.0 | 0.00 | 0.20 | 0.09 | 57 | 1011.2 |
| 20260508170004 | 54 | 244 | 2.0 | 4.0 | 0.00 | 0.20 | 0.09 | 52 | 1011.4 |
| 20260508165504 | 53 | 281 | 2.0 | 4.0 | 0.00 | 0.20 | 0.09 | 59 | 1011.4 |
| 20260508165004 | 53 | 213 | 1.0 | 4.0 | 0.00 | 0.20 | 0.09 | 61 | 1011.4 |
| 20260508164503 | 53 | 234 | 1.0 | 3.0 | 0.00 | 0.20 | 0.09 | 60 | 1011.5 |
| 20260508164003 | 53 | 262 | 1.0 | 3.0 | 0.00 | 0.20 | 0.09 | 62 | 1011.6 |
| 20260508163508 | 53 | 342 | 1.0 | 3.0 | 0.00 | 0.20 | 0.09 | 58 | 1011.6 |
| 20260508163003 | 52 | 20 | 1.0 | 5.0 | 0.00 | 0.20 | 0.09 | 62 | 1011.6 |
| 20260508162503 | 52 | 8 | 1.0 | 5.0 | 0.00 | 0.20 | 0.09 | 64 | 1011.6 |
| 20260508162217 | 52 | 342 | 1.0 | 4.0 | 0.00 | 0.20 | 0.09 | 65 | 1011.6 |